Regional Weather Roundup
Issued by NWS Bismarck, ND

Home | Current Version | Previous Version | Text Only | Print | Product List | Glossary On
Versions: 1 2 3 4 5 6 7 8 9 10 11 12 13 14 15 16 17 18 19 20 21 22 23 24 25 26 27 28 29 30 31 32 33 34 35 36 37 38 39 40 41 42 43 44 45 46 47 48 49 50
000
ASUS43 KBIS 200710
RWRBIS

NWR BROADCAST TEXT
NATIONAL WEATHER SERVICE BISMARCK ND
100 AM CST MON FEB 20 2017

NOTE: "FAIR" INDICATES FEW OR NO CLOUDS BELOW 12,000 FEET WITH NO
SIGNIFICANT WEATHER AND/OR OBSTRUCTIONS TO VISIBILITY.


CITY           SKY/WX    TMP DP  RH WIND       PRES   REMARKS
WILLISTON      CLOUDY    33  32  96 VRB3      29.61S FOG
MINOT          MOCLDY    33  31  92 W8        29.55S FOG
MINOT AFB      FOG       32  32  98 W5        29.56R VSB 3/4
BISMARCK       MOCLDY    36  34  92 CALM      29.52S
DICKINSON      CLOUDY    36  34  92 NW10      29.55R
GARRISON         N/A     34  32  92 NW6       29.54R
HETTINGER ARPT FAIR      41  34  76 NW13      29.56R
JAMESTOWN      FAIR      41  41 100 S8        29.53S FOG
CARRINGTON     FOG       36  36 100 SE8       29.54F VSB 1/4
HAZEN          CLOUDY   N/A N/A N/A W7        29.57R
MANDAN         CLOUDY    37  37 100 NW7       29.53S
RUGBY            N/A     32  32 100 SW5       29.54R
STANLEY        CLOUDY    32  32 100 NW6       29.59S FOG
TIOGA          FOG       32  32 100 W15       29.59R VSB 1
WATFORD CITY   CLOUDY    32  32 100 W9        29.61R FOG
$$

CITY           SKY/WX    TMP DP  RH WIND       PRES   REMARKS
GRAND FORKS    FAIR      41  36  82 SE16      29.58F
GRAND FORKS AF FAIR      39  39  99 S13       29.58F
DEVILS LAKE    FOG       36  36 100 E3        29.55S VSB 1/4
FARGO          FAIR      52  48  86 SE20G26   29.61S
CAVALIER       CLOUDY    37  36  93 SE6       29.58F
GRAFTON        FAIR      36  36 100 SE8       29.60F
GWINNER        FAIR      45  45 100 SE5       29.60F
ROLLA          FOG       32  32 100 S5        29.54S VSB 1/4
$$

CITY           SKY/WX    TMP DP  RH WIND       PRES   REMARKS
ABERDEEN       CLOUDY    53  46  77 SE21G30   29.58F
MOBRIDGE         N/A     44  34  67 E8        29.50F
BUFFALO          N/A     45  37  73 NW14      29.53R
RAPID CITY     CLOUDY    54  35  48 S6        29.56R
GLASGOW        FAIR      26  25  96 S7        29.62R FOG     WCI  18
SIDNEY         MOCLDY    33  32  96 W5        29.63R FOG
WOLF POINT     CLOUDY    32  30  92 SW3       29.64R FOG
GLENDIVE       CLOUDY    37  34  89 NW6       29.63R
MILES CITY     MOCLDY    42  34  73 W10       29.64R
BAKER          CLOUDY    39  34  82 W10       29.62R
$$

CITY           SKY/WX    TMP DP  RH WIND       PRES   REMARKS
BILLINGS       CLOUDY    39  28  64 SW7       29.70R
GREAT FALLS    FAIR      33  27  78 SW13      29.67R
REGINA         CLOUDY    32  32 100 SW7       29.59R
ESTEVAN        FRZ DRZL  32  32 100 W10       29.58S VSB 5/8
$$




USA.gov is the U.S. government's official web portal to all federal, state and local government web resources and services.